User: anonymous   Login
Location: �clusier
(49.9361°N, 2.7869°E)
Time: 00:59:10
(UTC+00:00)
Language:

Cosmos 1908 - Orbit

View from above orbital plane
View from above orbital plane
View from above satellite
View from above satellite

Ground track
Ground track

The orbit data is extracted from the following two-line orbital elements,

1 18748U 88001A   21269.39612148  .00001281  00000-0  65872-4 0  9993
2 18748  82.4713 316.5215 0011826 244.5052 115.4958 15.15551004841977
Epoch (UTC): 26 September 2021 09:30:24
Eccentricity: 0.0011826
inclination: 82.4713°
perigee height: 511 km
apogee height: 527 km
right ascension of ascending node: 316.5215°
argument of perigee: 244.5052°
revolutions per day: 15.15551004
mean anomaly at epoch: 115.4958°
orbit number at epoch: 84197

The dashed part of the orbit path shows where the satellite is in the earth's shadow,  

DLR